| time (UTC) | temp F | wind direction | speed knots | gust knots | rain 1hr in | rain 24hr in | rain mn in | humidity % | barometer mb |
| 20260507160037 | 66 | 268 | 0.0 | 0.0 | 0.00 | 0.06 | 0.06 | 87 | 1017.7 |
| 20260507154536 | 66 | 268 | 0.0 | 0.9 | 0.00 | 0.06 | 0.06 | 78 | 1017.7 |
| 20260507153033 | 66 | 273 | 0.0 | 0.9 | 0.00 | 0.06 | 0.06 | 84 | 1017.7 |
| 20260507151532 | 65 | 336 | 0.0 | 0.0 | 0.00 | 0.06 | 0.06 | 86 | 1017.6 |
| 20260507150030 | 66 | 29 | 0.9 | 2.6 | 0.00 | 0.06 | 0.06 | 77 | 1017.6 |
| 20260507144530 | 67 | 307 | 0.0 | 1.7 | 0.00 | 0.06 | 0.06 | 78 | 1017.8 |
| 20260507143052 | 67 | 307 | 0.9 | 1.7 | 0.00 | 0.06 | 0.06 | 76 | 1017.9 |
| 20260507141537 | 67 | 198 | 0.0 | 1.7 | 0.00 | 0.06 | 0.06 | 75 | 1018.1 |
| 20260507140025 | 66 | 44 | 0.9 | 1.7 | 0.00 | 0.06 | 0.06 | 76 | 1018.0 |
| 20260507134524 | 66 | 51 | 0.0 | 2.6 | 0.00 | 0.06 | 0.06 | 81 | 1017.8 |
| 20260507133024 | 66 | 32 | 0.0 | 3.5 | 0.00 | 0.06 | 0.06 | 78 | 1018.0 |
| 20260507131521 | 65 | 61 | 1.7 | 3.5 | 0.00 | 0.06 | 0.06 | 78 | 1018.1 |
| 20260507130031 | 65 | 109 | 0.0 | 2.6 | 0.00 | 0.06 | 0.06 | 81 | 1018.2 |
| 20260507124516 | 64 | 123 | 0.0 | 0.9 | 0.00 | 0.06 | 0.06 | 83 | 1018.2 |
| 20260507123015 | 64 | 108 | 0.0 | 2.6 | 0.00 | 0.06 | 0.06 | 85 | 1018.5 |
| 20260507121514 | 63 | 191 | 0.0 | 2.6 | 0.00 | 0.06 | 0.06 | 82 | 1018.4 |
| 20260507120013 | 63 | 259 | 0.0 | 4.3 | 0.00 | 0.06 | 0.06 | 83 | 1018.7 |
| 20260507114517 | 63 | 231 | 0.0 | 2.6 | 0.00 | 0.06 | 0.06 | 87 | 1018.8 |
| 20260507113008 | 62 | 211 | 0.9 | 2.6 | 0.00 | 0.06 | 0.06 | 85 | 1018.8 |
| 20260507111507 | 61 | 170 | 0.0 | 0.9 | 0.01 | 0.06 | 0.06 | 89 | 1019.2 |
| 20260507110004 | 61 | 5 | 0.0 | 1.7 | 0.02 | 0.06 | 0.06 | 89 | 1019.4 |
| 20260507104502 | 61 | 101 | 0.0 | 0.9 | 0.02 | 0.06 | 0.06 | 92 | 1019.6 |
| 20260507103101 | 61 | 208 | 0.0 | 1.7 | 0.03 | 0.06 | 0.06 | 93 | 1020.0 |
| 20260507101602 | 61 | 257 | 0.0 | 0.9 | 0.03 | 0.05 | 0.05 | 92 | 1020.0 |
| 20260507100100 | 60 | 339 | 0.0 | 0.9 | 0.03 | 0.04 | 0.04 | 92 | 1019.9 |
| 20260507094554 | 61 | 355 | 0.0 | 1.7 | 0.03 | 0.03 | 0.03 | 91 | 1019.6 |
| 20260507093053 | 61 | 5 | 0.0 | 2.6 | 0.02 | 0.02 | 0.02 | 91 | 1019.5 |
| 20260507091551 | 61 | 217 | 0.0 | 0.0 | 0.02 | 0.02 | 0.02 | 89 | 1019.5 |
| 20260507090059 | 61 | 217 | 0.0 | 0.0 | 0.01 | 0.01 | 0.01 | 88 | 1019.4 |
| 20260507084553 | 61 | 217 | 0.0 | 1.7 | 0.00 | 0.00 | 0.00 | 89 | 1019.2 |
| 20260507083044 | 62 | 31 | 0.0 | 0.0 | 0.00 | 0.00 | 0.00 | 85 | 1018.8 |
| 20260507081551 | 62 | 31 | 0.0 | 3.5 | 0.00 | 0.00 | 0.00 | 82 | 1018.6 |
| 20260507080039 | 62 | 88 | 0.0 | 1.7 | 0.00 | 0.00 | 0.00 | 82 | 1018.4 |
| 20260507074536 | 61 | 189 | 0.0 | 0.0 | 0.00 | 0.00 | 0.00 | 85 | 1018.1 |
| 20260507073034 | 61 | 230 | 0.0 | 0.9 | 0.00 | 0.00 | 0.00 | 84 | 1017.7 |
| 20260507071536 | 60 | 236 | 0.0 | 1.7 | 0.00 | 0.00 | 0.00 | 82 | 1017.7 |
| 20260507070033 | 60 | 263 | 0.0 | 1.7 | 0.00 | 0.00 | 0.00 | 83 | 1017.6 |
| 20260507064541 | 60 | 173 | 0.0 | 0.9 | 0.00 | 0.00 | 0.00 | 81 | 1017.6 |
| 20260507063024 | 59 | 36 | 0.0 | 1.7 | 0.00 | 0.00 | 0.00 | 82 | 1017.6 |
| 20260507061522 | 58 | 53 | 0.0 | 1.7 | 0.00 | 0.00 | 0.00 | 84 | 1017.7 |
| 20260507060022 | 58 | 40 | 0.0 | 1.7 | 0.00 | 0.00 | 0.00 | 86 | 1017.7 |
| 20260507054515 | 57 | 328 | 0.0 | 0.9 | 0.00 | 0.00 | 0.00 | 86 | 1017.9 |
| 20260507053013 | 57 | 39 | 0.0 | 0.9 | 0.00 | 0.00 | 0.00 | 86 | 1017.7 |
| 20260507051509 | 56 | 37 | 0.0 | 1.7 | 0.00 | 0.00 | 0.00 | 89 | 1017.6 |
| 20260507050010 | 53 | 296 | 0.0 | 0.0 | 0.00 | 0.00 | 0.00 | 93 | 1017.4 |
| 20260507044502 | 52 | 296 | 0.0 | 0.9 | 0.00 | 0.00 | 0.00 | 93 | 1017.2 |
| 20260507043100 | 51 | 230 | 0.0 | 0.0 | 0.00 | 0.00 | 0.00 | 94 | 1017.1 |
| 20260507041559 | 50 | 292 | 0.0 | 0.0 | 0.00 | 0.00 | 0.00 | 94 | 1016.9 |
| 20260507040054 | 50 | 307 | 0.0 | 0.0 | 0.00 | 0.00 | 0.00 | 94 | 1016.7 |
| 20260507034551 | 49 | 321 | 0.0 | 0.9 | 0.00 | 0.00 | 0.00 | 94 | 1016.7 |
| 20260507033051 | 49 | 334 | 0.0 | 0.0 | 0.00 | 0.00 | 0.00 | 94 | 1016.5 |
| 20260507031549 | 49 | 271 | 0.0 | 0.0 | 0.00 | 0.00 | 0.00 | 94 | 1016.4 |
| 20260507030048 | 49 | 271 | 0.0 | 0.0 | 0.00 | 0.00 | 0.00 | 94 | 1016.4 |
| 20260507024547 | 49 | 271 | 0.0 | 0.9 | 0.00 | 0.00 | 0.00 | 93 | 1016.4 |
| 20260507023045 | 50 | 271 | 0.0 | 0.9 | 0.00 | 0.00 | 0.00 | 93 | 1016.3 |
| 20260507021545 | 50 | 240 | 0.0 | 0.0 | 0.00 | 0.00 | 0.00 | 93 | 1016.3 |
| 20260507020057 | 50 | 240 | 0.0 | 0.9 | 0.00 | 0.00 | 0.00 | 93 | 1016.3 |
| 20260507014546 | 50 | 240 | 0.0 | 0.0 | 0.00 | 0.00 | 0.00 | 93 | 1016.3 |
| 20260507013042 | 51 | 271 | 0.0 | 0.0 | 0.00 | 0.00 | 0.00 | 92 | 1016.1 |
| 20260507011542 | 51 | 240 | 0.0 | 0.9 | 0.00 | 0.00 | 0.00 | 93 | 1016.2 |
| 20260507010056 | 51 | 240 | 0.0 | 0.0 | 0.00 | 0.00 | 0.00 | 93 | 1016.1 |
| 20260507004538 | 51 | 240 | 0.0 | 0.0 | 0.00 | 0.00 | 0.00 | 93 | 1016.1 |
| 20260507003039 | 50 | 240 | 0.0 | 0.9 | 0.00 | 0.00 | 0.00 | 93 | 1016.0 |
| 20260507001537 | 50 | 269 | 0.0 | 0.0 | 0.00 | 0.00 | 0.00 | 93 | 1016.1 |
| 20260507000036 | 50 | 277 | 0.0 | 1.7 | 0.00 | 0.00 | 0.00 | 93 | 1016.0 |
| 20260506234534 | 50 | 261 | 0.0 | 2.6 | 0.00 | 0.00 | 0.00 | 92 | 1016.0 |
| 20260506233033 | 51 | 5 | 0.0 | 0.0 | 0.00 | 0.00 | 0.00 | 91 | 1016.0 |
| 20260506231531 | 52 | 5 | 0.0 | 1.7 | 0.00 | 0.00 | 0.00 | 91 | 1016.2 |
| 20260506230030 | 52 | 232 | 0.0 | 1.7 | 0.00 | 0.00 | 0.00 | 91 | 1016.2 |
| 20260506224532 | 52 | 286 | 0.0 | 1.7 | 0.00 | 0.00 | 0.00 | 91 | 1016.2 |
| 20260506223027 | 51 | 283 | 0.0 | 0.0 | 0.00 | 0.00 | 0.00 | 91 | 1016.2 |
| 20260506221526 | 52 | 283 | 0.0 | 0.0 | 0.00 | 0.00 | 0.00 | 90 | 1016.3 |
| 20260506220033 | 52 | 283 | 0.0 | 0.9 | 0.00 | 0.00 | 0.00 | 90 | 1016.3 |
| 20260506214522 | 53 | 273 | 0.0 | 0.9 | 0.00 | 0.00 | 0.00 | 89 | 1016.2 |
| 20260506213023 | 54 | 247 | 0.0 | 0.0 | 0.00 | 0.00 | 0.00 | 88 | 1016.1 |
| 20260506211527 | 55 | 247 | 0.0 | 0.9 | 0.00 | 0.00 | 0.00 | 87 | 1016.0 |
| 20260506210025 | 55 | 242 | 0.0 | 0.9 | 0.00 | 0.00 | 0.00 | 86 | 1016.0 |
| 20260506204519 | 56 | 298 | 0.0 | 0.0 | 0.00 | 0.00 | 0.00 | 85 | 1016.0 |
| 20260506203019 | 57 | 298 | 0.0 | 0.9 | 0.00 | 0.00 | 0.00 | 82 | 1016.0 |
| 20260506201528 | 58 | 298 | 0.0 | 0.9 | 0.00 | 0.00 | 0.00 | 80 | 1016.1 |
| 20260506200018 | 58 | 291 | 0.0 | 1.7 | 0.00 | 0.00 | 0.00 | 79 | 1016.2 |
| 20260506194518 | 59 | 284 | 0.0 | 1.7 | 0.00 | 0.00 | 0.00 | 79 | 1015.9 |
| 20260506193023 | 60 | 286 | 0.0 | 0.9 | 0.00 | 0.00 | 0.00 | 76 | 1015.5 |
| 20260506191517 | 61 | 193 | 0.0 | 1.7 | 0.00 | 0.00 | 0.00 | 74 | 1015.5 |
| 20260506190025 | 62 | 121 | 0.0 | 1.7 | 0.00 | 0.00 | 0.00 | 76 | 1015.4 |
| 20260506184520 | 62 | 277 | 0.0 | 0.0 | 0.00 | 0.00 | 0.00 | 73 | 1015.2 |
| 20260506183014 | 63 | 277 | 0.0 | 1.7 | 0.00 | 0.00 | 0.00 | 72 | 1014.9 |
| 20260506181515 | 65 | 296 | 0.9 | 2.6 | 0.00 | 0.00 | 0.00 | 68 | 1014.7 |
| 20260506180021 | 65 | 237 | 0.0 | 1.7 | 0.00 | 0.00 | 0.00 | 64 | 1014.5 |
| 20260506174523 | 66 | 176 | 0.9 | 4.3 | 0.00 | 0.00 | 0.00 | 62 | 1014.4 |
| 20260506173013 | 67 | 149 | 1.7 | 3.5 | 0.00 | 0.00 | 0.00 | 56 | 1014.4 |
| 20260506171518 | 68 | 165 | 2.6 | 4.3 | 0.00 | 0.00 | 0.00 | 58 | 1014.3 |
| 20260506170011 | 70 | 136 | 1.7 | 4.3 | 0.00 | 0.00 | 0.00 | 56 | 1014.1 |
| 20260506164509 | 72 | 57 | 0.0 | 0.9 | 0.00 | 0.00 | 0.00 | 53 | 1014.1 |
| 20260506163010 | 74 | 163 | 0.0 | 4.3 | 0.00 | 0.00 | 0.00 | 47 | 1014.0 |
| 20260506161509 | 74 | 117 | 1.7 | 5.2 | 0.00 | 0.00 | 0.00 | 45 | 1014.0 |